Tracking 18852 objects as of 23-Nov-2017
HD Live streaming from Space Station
objects crossing your sky now

SL-12 R/B(AUX MOTOR) DEB

Track SL-12 R/B(AUX MOTOR) DEB now!
10-day predictions


NORAD ID: 41807
Int'l Code: 2006-062M
Perigee: 349.2 km
Apogee: 18,820.5 km
Inclination: 64.6 °
Period: 334.3 minutes
Semi major axis: 15955 km
RCS: Unknown
Launch date: December 25, 2006
Source: Commonwealth of Independent States (former USSR) (CIS)
Launch site: TYURATAM MISSILE AND SPACE COMPLEX (TTMTR)

Note: This is SATELLITE DEBRIS
aabbcc
Your satellite tracking list
Your tracking list is empty




NASA's NSSDC Master Catalog

Two Line Element Set (TLE):
1 41807U 06062M   17326.34980827 +.00005321 +00000-0 +24266-2 0  9997
2 41807 064.6338 074.7956 5788237 010.0314 357.7833 04.30746495020470
Source of the keplerian elements: AFSPC